Starlink 31819

operational
NORAD ID: 59738 Int'l Des: 2024-090 Owner: SPXS Country: US Constellation: starlink
LEOCIRCULAR

Über Starlink 31819

Beschreibung wird geladen...

Live-Position

3D-Globus wird geladen...

Nächste Überflüge

Höhenverlauf

Altitude vs Time

uPlot chart will show altitude changes over time

Zweizeiliger Elementsatz

1 59738U 24090J 25351.52418927 -.00000666 00000-0 -14671-4 0 9994
2 59738 43.0067 287.5518 0001244 290.2409 69.8309 15.27581601 90872
Epoch: 17. Dez. 2025 • Age: 14 hours

Aktueller Status

Höhe 482.7 km
Geschwindigkeit 7.63 km/s
Subsatellitenpunkt -2.00°S, 154.76°E
Startdatum 13. Mai 2024
Alter 1.5 years
Typ internet

Technische Details

Klassifizierung Payload
Masse 730.00 kg
Trockenmasse 700.00 kg
Gesamtmasse 730.00 kg
Länge 0.30 m
Durchmesser 4.10 m
Spannweite 29.00 m
Form Box + pan
Hersteller SPXS
Bus-Typ Starlink V2M
Phasenstatus In Orbit
Besitzer/Staat SPXS/US

Große Konstellationen

Loading constellations...